Weather History for KSJT - March, 2013

Change the Weather History Date:

Saturday, March 9, 2013

  Actual Average Record
Temperature  
Mean Temperature 72 °F 56 °F  
Max Temperature 83 °F 69 °F 90 °F (1911)
Min Temperature 61 °F 43 °F 15 °F (1996)
Degree Days  
Heating Degree Days 0 10  
Month to date heating degree days 79 97  
Since 1 July heating degree days 1681 2058  
Cooling Degree Days 7 1  
Month to date cooling degree days 9 6  
Year to date cooling degree days 21 11  
Growing Degree Days 22 (Base 50)    
Moisture  
Dew Point 45 °F    
Average Humidity 50    
Maximum Humidity 78    
Minimum Humidity 21    
Precipitation  
Precipitation T in 0.05 in 0.83 in (1953)
Month to date precipitation T 0.46  
Year to date precipitation 1.82 2.74  
Snow  
Snow 0.00 in 0.00 in 3.00 in (1915)
Month to date snowfall 0.0 0.1  
Since 1 July snowfall 2.8 2.2  
Snow Depth 0.00 in    
Sea Level Pressure  
Sea Level Pressure 29.71 in    
Wind  
Wind Speed 18 mph (SW)    
Max Wind Speed 30 mph    
Max Gust Speed 39 mph    
Visibility 10 miles    
Events Rain , Thunderstorm    
T = Trace of Precipitation, MM = Missing Value Source: NWS Daily Summary

Daily Weather History Graph

Daily Weather History Graph

Search for Another Location

Airport or City:

Trip Planner

Search our weather history database for the weather conditions in past years. The results will help you decide how hot, cold, wet, or windy it might be!

Date:

Astronomy

Mar. 09, 2013 Rise Set
Actual Time 6:59 AM CST 6:46 PM CST
Civil Twilight 6:34 AM CST 7:10 PM CST
Nautical Twilight 6:06 AM CST 7:38 PM CST
Astronomical Twilight 5:38 AM CST 8:06 PM CST
Moon 5:17 AM CST (3/9) 4:54 PM CST (3/9)
Length of Visible Light 12h 35m
Length of Day
11h 47m
Waning Crescent, 5% of the Moon is Illuminated
Mar 9
Waning Crescent
Mar 11
New
Mar 19
First Quarter
Mar 27
Full
Apr 2
Last Quarter

Hourly Weather History & Observations

Time (CST) Temp. Dew Point Humidity Pressure Visibility Wind Dir Wind Speed Gust Speed Precip Events Conditions
12:51 AM 66.0 °F 57.9 °F 75% 29.77 in 10.0 mi South 24.2 mph 34.5 mph N/A   Clear
1:51 AM 66.0 °F 57.9 °F 75% 29.76 in 10.0 mi South 21.9 mph 35.7 mph N/A   Clear
2:51 AM 66.0 °F 57.9 °F 75% 29.74 in 10.0 mi South 23.0 mph 32.2 mph N/A   Clear
3:51 AM 66.0 °F 57.9 °F 75% 29.73 in 10.0 mi South 24.2 mph 31.1 mph N/A   Clear
4:51 AM 66.0 °F 57.9 °F 75% 29.73 in 10.0 mi South 21.9 mph 28.8 mph N/A   Partly Cloudy
5:51 AM 64.9 °F 57.9 °F 78% 29.72 in 10.0 mi South 18.4 mph 26.5 mph N/A   Clear
6:31 AM 66.2 °F 57.2 °F 73% 29.79 in 10.0 mi South 18.4 mph 26.5 mph N/A   Mostly Cloudy
6:48 AM 64.4 °F 57.2 °F 77% 29.79 in 10.0 mi South 18.4 mph 28.8 mph N/A   Mostly Cloudy
6:51 AM 64.9 °F 57.9 °F 78% 29.74 in 10.0 mi South 20.7 mph 28.8 mph N/A   Mostly Cloudy
7:51 AM 66.0 °F 57.9 °F 75% 29.74 in 10.0 mi South 18.4 mph 28.8 mph N/A   Clear
9:51 AM 72.0 °F 57.0 °F 59% 29.75 in 10.0 mi South 20.7 mph 31.1 mph N/A   Partly Cloudy
10:51 AM 75.9 °F 57.0 °F 52% 29.73 in 10.0 mi South 20.7 mph 31.1 mph N/A   Clear
11:51 AM 75.9 °F 52.0 °F 43% 29.72 in 10.0 mi SSW 17.3 mph - N/A   Mostly Cloudy
12:51 PM 79.0 °F 52.0 °F 39% 29.68 in 10.0 mi SW 17.3 mph 25.3 mph N/A   Mostly Cloudy
1:51 PM 80.1 °F 46.9 °F 31% 29.64 in 10.0 mi SSW 21.9 mph 27.6 mph N/A   Partly Cloudy
2:51 PM 82.9 °F 39.0 °F 21% 29.61 in 10.0 mi West 28.8 mph 36.8 mph N/A   Partly Cloudy
3:51 PM 81.0 °F 39.9 °F 23% 29.61 in 10.0 mi West 11.5 mph 21.9 mph N/A   Partly Cloudy
4:51 PM 79.0 °F 37.0 °F 22% 29.60 in 10.0 mi WNW 16.1 mph - N/A   Clear
5:51 PM 75.0 °F 34.0 °F 22% 29.61 in 10.0 mi WNW 12.7 mph - N/A   Mostly Cloudy
6:51 PM 70.0 °F 30.9 °F 24% 29.64 in 10.0 mi NW 11.5 mph 21.9 mph N/A   Clear
7:51 PM 66.9 °F 30.0 °F 25% 29.63 in 10.0 mi NW 10.4 mph - N/A   Clear
8:51 PM 66.0 °F 30.9 °F 27% 29.67 in 10.0 mi NW 11.5 mph 18.4 mph 0.00 in Rain Light Rain
9:51 PM 66.0 °F 23.0 °F 20% 29.72 in 10.0 mi NNW 11.5 mph 20.7 mph 0.00 in   Overcast
10:51 PM 64.0 °F 28.0 °F 26% 29.74 in 10.0 mi NNW 11.5 mph - 0.00 in   Mostly Cloudy
11:06 PM 62.6 °F 26.6 °F 26% 29.81 in 10.0 mi NNW 11.5 mph 19.6 mph 0.00 in Rain , Thunderstorm Light Thunderstorms and Rain
11:21 PM 62.6 °F 28.4 °F 27% 29.82 in 10.0 mi NNW 5.8 mph - 0.00 in   Overcast